Location: Unspecified
(0.0000°N, 0.0000°E)
Time: 05:44:44
(UTC+00:00)

Explorer 7 - Pass Details

Date: 01 October 2020
Orbit: 484 x 678 km, 50.3° (Epoch: 28 October)

Event Time Altitude Azimuth Distance (km) Brightness Sun altitude
Enters shadow 19:54:25 -1° 195° (SSW) 2,624 10.5 -31.2°
Rises 19:54:34 0° 194° (SSW) 2,568 - -31.2°
Reaches altitude 10° 19:57:06 10° 177° (S) 1,704 - -31.8°
Maximum altitude 20:00:05 21° 126° (SE) 1,179 - -32.6°
Drops below altitude 10° 20:03:10 10° 75° (ENE) 1,768 - -33.4°
Sets 20:05:50 0° 60° (ENE) 2,694 - -34.0°
